Location: Unspecified
(0.0000°N, 0.0000°E)
Time: 22:58:43
(UTC+00:00)

Courier 1B - Visible Passes

Search period start: 27 January 2015 00:00
Search period end: 06 February 2015 00:00
Orbit: 963 x 1209 km, 28.3° (Epoch: 27 January)

Date Brightness Start Highest point End Pass type
(mag) Time Alt. Az. Time Alt. Az. Time Alt. Az.
27 Jan 8.6 03:20:10 47° ESE 03:20:10 47° ESE 03:25:23 10° ESE visible
27 Jan 8.8 05:07:05 17° W 05:12:12 35° SSW 05:18:49 10° SE visible
27 Jan 9.8 18:37:29 10° NW 18:39:33 11° NNW 18:41:24 10° N visible
28 Jan 10.1 02:29:53 16° ESE 02:29:53 16° ESE 02:31:18 10° ESE visible
28 Jan 8.3 04:16:47 43° WSW 04:18:11 47° SSW 04:25:26 10° SE visible
29 Jan 8.6 03:26:27 46° SSE 03:26:27 46° SSE 03:31:50 10° SE visible
29 Jan 9.5 05:13:23 10° WSW 05:19:00 21° SSW 05:24:18 10° SSE visible
30 Jan 9.9 02:36:06 20° ESE 02:36:06 20° ESE 02:38:03 10° ESE visible
30 Jan 9.0 04:23:00 26° SW 04:24:52 28° SSW 04:31:11 10° SSE visible
31 Jan 9.0 03:32:37 33° S 03:32:37 33° S 03:37:49 10° SE visible
31 Jan 9.9 05:22:54 10° SW 05:26:06 13° SSW 05:28:59 10° S visible
01 Feb 9.9 02:42:12 19° SE 02:42:12 19° SE 02:44:17 10° SE visible
01 Feb 9.6 04:29:05 15° SW 04:31:49 17° SSW 04:36:25 10° SSE visible
02 Feb 9.5 03:38:39 22° SSW 03:38:39 22° SSW 03:43:21 10° SSE visible
03 Feb 10.0 02:48:11 17° SSE 02:48:11 17° SSE 02:50:03 10° SSE visible
03 Feb 10.1 04:37:51 10° SSW 04:39:04 10° SSW 04:39:57 10° S visible
04 Feb 9.9 03:44:35 14° SSW 03:44:41 14° SSW 03:48:14 10° S visible
05 Feb 10.2 02:54:05 13° S 02:54:05 13° S 02:55:20 10° SSE visible
